Regional Weather Roundup
Issued by NWS Charleston, WV

Home | Current Version | Previous Version | Text Only | Print | Product List | Glossary Off
Versions: 1 2 3 4 5 6 7 8 9 10 11 12 13 14 15 16 17 18 19 20 21 22 23 24 25 26 27 28 29 30 31 32 33 34 35 36 37 38 39 40 41 42 43 44 45 46 47 48 49 50

000
ASUS41 KRLX 310810
RWRRLX
West Virginia Regional Weather Roundup
National Weather Service Charleston WV
400 AM EDT THU JUL 31 2014

Note: "fair" indicates few or no clouds below 12,000 feet with no
significant weather and/or obstructions to visibility.

WVZ003-310900-
Northern Panhandle of West Virginia

CITY           SKY/WX    TMP DP  RH WIND       PRES   REMARKS
WHEELING       CLEAR     58  56  93 S8        30.05F
$$

WVZ009-310900-
Northwest West Virginia

CITY           SKY/WX    TMP DP  RH WIND       PRES   REMARKS
PARKERSBURG    PTCLDY    58  56  93 S3        30.10S
$$

WVZ006-310900-
Western West Virginia

CITY           SKY/WX    TMP DP  RH WIND       PRES   REMARKS
HUNTINGTON     CLEAR     58  57  97 CALM      30.08F
$$

WVZ015-310900-
West Central West Virginia

CITY           SKY/WX    TMP DP  RH WIND       PRES   REMARKS
CHARLESTON     CLOUDY    61  61 100 CALM      30.08F
$$

WVZ031-310900-
North Central West Virginia

CITY           SKY/WX    TMP DP  RH WIND       PRES   REMARKS
CLARKSBURG     CLOUDY    56  55  97 CALM      30.09F FOG
MORGANTOWN     CLEAR     59  55  87 S5        30.09F
$$

WVZ035-042-045-310900-
South Central West Virginia

CITY           SKY/WX    TMP DP  RH WIND       PRES   REMARKS
BECKLEY        PTCLDY    56  53  90 S9        30.16F
BLUEFIELD      PTCLDY    61  51  70 SW6       30.18F
LEWISBURG      MOCLDY    53  51  90 CALM      30.16R
$$

WVZ047-310900-
Northern Mountains of West Virginia

CITY           SKY/WX    TMP DP  RH WIND       PRES   REMARKS
ELKINS         MOCLDY    53  51  93 CALM      30.13S FOG
$$

WVZ052-310900-
Eastern Panhandle of West Virginia

CITY           SKY/WX    TMP DP  RH WIND       PRES   REMARKS
MARTINSBURG    CLEAR     60  56  86 CALM      30.07S FOG
PETERSBURG     PTCLDY    54  51  89 CALM      30.10S FOG
$$


USA.gov is the U.S. government's official web portal to all federal, state and local government web resources and services.